| time (UTC) | temp C | wind direction | speed KPH | gust KPH | rain 1hr cm | rain 24hr cm | rain mn cm | humidity % | barometer mb |
| 20260509052307 | 21 | 208 | 3.2 | 4.8 | 0.00 | 1.88 | 0.00 | 84 | 1008.9 |
| 20260509050933 | 21 | 346 | 3.2 | 9.7 | 0.00 | 1.88 | 0.00 | 84 | 1009.8 |
| 20260509045804 | 21 | 339 | 8.0 | 11.3 | 0.00 | 1.88 | 1.88 | 83 | 1008.6 |
| 20260509045306 | 21 | 224 | 1.6 | 4.8 | 0.00 | 1.88 | 1.88 | 83 | 1008.6 |
| 20260509044805 | 21 | 178 | 1.6 | 9.7 | 0.00 | 1.88 | 1.88 | 83 | 1008.1 |
| 20260509044304 | 21 | 175 | 8.0 | 12.9 | 0.00 | 1.88 | 1.88 | 83 | 1008.1 |
| 20260509043804 | 21 | 157 | 8.0 | 9.7 | 0.00 | 1.88 | 1.88 | 82 | 1008.0 |
| 20260509042805 | 21 | 169 | 6.4 | 19.3 | 0.00 | 1.88 | 1.88 | 82 | 1007.7 |
| 20260509042307 | 21 | 180 | 11.3 | 20.9 | 0.00 | 1.88 | 1.88 | 82 | 1007.7 |
| 20260509035804 | 22 | 169 | 11.3 | 22.5 | 0.00 | 1.88 | 1.88 | 81 | 1008.0 |
| 20260509034805 | 22 | 155 | 8.0 | 19.3 | 0.00 | 1.88 | 1.88 | 81 | 1008.0 |
| 20260509032306 | 22 | 150 | 1.6 | 3.2 | 0.00 | 1.88 | 1.88 | 80 | 1008.6 |
| 20260509031304 | 22 | 148 | 3.2 | 9.7 | 0.00 | 1.88 | 1.88 | 80 | 1008.3 |
| 20260509024304 | 22 | 150 | 8.0 | 12.9 | 0.00 | 1.88 | 1.88 | 81 | 1007.9 |
| 20260509021304 | 22 | 159 | 9.7 | 19.3 | 0.00 | 1.88 | 1.88 | 80 | 1006.8 |
| 20260509020804 | 22 | 171 | 14.5 | 22.5 | 0.00 | 1.88 | 1.88 | 79 | 1006.8 |
| 20260509020304 | 22 | 161 | 11.3 | 19.3 | 0.00 | 1.88 | 1.88 | 79 | 1006.9 |
| 20260509015804 | 22 | 155 | 11.3 | 16.1 | 0.00 | 1.88 | 1.88 | 79 | 1006.8 |
| 20260509014804 | 22 | 164 | 9.7 | 14.5 | 0.00 | 1.88 | 1.88 | 78 | 1006.6 |
| 20260509014308 | 22 | 173 | 9.7 | 14.5 | 0.00 | 1.88 | 1.88 | 78 | 1006.6 |
| 20260509013809 | 22 | 168 | 11.3 | 16.1 | 0.00 | 1.88 | 1.88 | 78 | 1006.6 |
| 20260509013308 | 22 | 167 | 9.7 | 14.5 | 0.00 | 1.88 | 1.88 | 77 | 1006.7 |
| 20260509005809 | 22 | 170 | 9.7 | 19.3 | 0.00 | 1.88 | 1.88 | 76 | 1006.6 |
| 20260509005308 | 23 | 161 | 8.0 | 16.1 | 0.00 | 1.88 | 1.88 | 75 | 1006.6 |
| 20260509004808 | 23 | 166 | 9.7 | 19.3 | 0.00 | 1.88 | 1.88 | 75 | 1006.4 |
| 20260509003308 | 23 | 145 | 8.0 | 14.5 | 0.00 | 1.88 | 1.88 | 74 | 1006.2 |
| 20260509002808 | 23 | 164 | 8.0 | 14.5 | 0.00 | 1.88 | 1.88 | 74 | 1006.2 |
| 20260509001808 | 23 | 159 | 12.9 | 19.3 | 0.00 | 1.88 | 1.88 | 73 | 1006.2 |
| 20260509000808 | 23 | 151 | 9.7 | 16.1 | 0.00 | 1.88 | 1.88 | 73 | 1006.4 |
| 20260508233308 | 23 | 170 | 14.5 | 22.5 | 0.00 | 1.88 | 1.88 | 71 | 1006.6 |
| 20260508230308 | 24 | 169 | 11.3 | 19.3 | 0.00 | 1.88 | 1.88 | 70 | 1006.7 |
| 20260508225308 | 25 | 189 | 9.7 | 19.3 | 0.00 | 1.88 | 1.88 | 70 | 1006.8 |
| 20260508224308 | 25 | 184 | 14.5 | 22.5 | 0.00 | 1.88 | 1.88 | 69 | 1006.7 |
| 20260508223808 | 25 | 197 | 9.7 | 19.3 | 0.00 | 1.88 | 1.88 | 69 | 1006.7 |
| 20260508222808 | 25 | 197 | 8.0 | 16.1 | 0.00 | 1.88 | 1.88 | 68 | 1006.7 |
| 20260508221308 | 25 | 163 | 9.7 | 19.3 | 0.00 | 1.88 | 1.88 | 68 | 1006.6 |
| 20260508215808 | 25 | 202 | 14.5 | 20.9 | 0.00 | 1.88 | 1.88 | 67 | 1006.7 |
| 20260508214308 | 25 | 163 | 16.1 | 25.7 | 0.00 | 1.88 | 1.88 | 66 | 1006.6 |
| 20260508212307 | 25 | 151 | 11.3 | 20.9 | 0.00 | 1.88 | 1.88 | 66 | 1006.7 |
| 20260508204808 | 24 | 207 | 12.9 | 22.5 | 0.00 | 1.88 | 1.88 | 67 | 1008.0 |
| 20260508201808 | 25 | 176 | 8.0 | 19.3 | 0.00 | 1.88 | 1.88 | 66 | 1008.6 |
| 20260508201307 | 25 | 167 | 9.7 | 20.9 | 0.00 | 1.88 | 1.88 | 66 | 1008.6 |
| 20260508200807 | 25 | 149 | 9.7 | 20.9 | 0.00 | 1.88 | 1.88 | 65 | 1008.6 |
| 20260508195307 | 25 | 164 | 11.3 | 20.9 | 0.00 | 1.88 | 1.88 | 64 | 1008.5 |
| 20260508194807 | 25 | 156 | 8.0 | 19.3 | 0.00 | 1.88 | 1.88 | 63 | 1008.6 |
| 20260508194307 | 25 | 167 | 11.3 | 20.9 | 0.00 | 1.88 | 1.88 | 64 | 1008.6 |
| 20260508193807 | 26 | 149 | 9.7 | 19.3 | 0.00 | 1.88 | 1.88 | 63 | 1008.6 |
| 20260508192807 | 26 | 198 | 11.3 | 24.1 | 0.00 | 1.88 | 1.88 | 61 | 1008.9 |
| 20260508184807 | 26 | 147 | 9.7 | 19.3 | 0.00 | 1.88 | 1.88 | 61 | 1009.0 |
| 20260508182807 | 25 | 150 | 6.4 | 19.3 | 0.00 | 1.88 | 1.88 | 60 | 1009.4 |
| 20260508180307 | 25 | 162 | 11.3 | 19.3 | 0.00 | 1.88 | 1.88 | 63 | 1009.9 |
| 20260508174806 | 24 | 107 | 6.4 | 19.3 | 0.00 | 1.88 | 1.88 | 62 | 1009.9 |
| 20260508173807 | 23 | 157 | 6.4 | 12.9 | 0.00 | 1.88 | 1.88 | 64 | 1010.0 |
| 20260508172307 | 23 | 170 | 8.0 | 14.5 | 0.00 | 1.88 | 1.88 | 67 | 1010.4 |
| 20260508171807 | 23 | 197 | 4.8 | 14.5 | 0.00 | 1.88 | 1.88 | 66 | 1010.6 |
| 20260508170307 | 22 | 153 | 8.0 | 16.1 | 0.00 | 1.88 | 1.88 | 67 | 1011.0 |
| 20260508163807 | 21 | 189 | 12.9 | 20.9 | 0.00 | 1.88 | 1.88 | 67 | 1011.6 |
| 20260508162807 | 21 | 166 | 11.3 | 19.3 | 0.00 | 1.88 | 1.88 | 69 | 1011.6 |
| 20260508162307 | 21 | 170 | 9.7 | 16.1 | 0.00 | 1.88 | 1.88 | 71 | 1011.9 |
| 20260508161806 | 20 | 167 | 9.7 | 14.5 | 0.00 | 1.88 | 1.88 | 74 | 1011.9 |
| 20260508160807 | 20 | 162 | 9.7 | 19.3 | 0.00 | 1.88 | 1.88 | 74 | 1011.9 |
| 20260508160306 | 19 | 172 | 9.7 | 22.5 | 0.00 | 1.88 | 1.88 | 74 | 1012.4 |
| 20260508155806 | 20 | 177 | 11.3 | 19.3 | 0.00 | 1.88 | 1.88 | 74 | 1012.4 |
| 20260508153306 | 18 | 159 | 8.0 | 16.1 | 0.00 | 1.88 | 1.88 | 81 | 1012.1 |
| 20260508151807 | 18 | 161 | 8.0 | 12.9 | 0.00 | 1.88 | 1.88 | 90 | 1012.1 |
| 20260508151306 | 17 | 183 | 9.7 | 16.1 | 0.00 | 1.88 | 1.88 | 92 | 1012.3 |
| 20260508150806 | 17 | 165 | 8.0 | 14.5 | 0.00 | 1.88 | 1.88 | 93 | 1012.3 |
| 20260508150306 | 16 | 155 | 6.4 | 14.5 | 0.00 | 1.88 | 1.88 | 94 | 1012.4 |
| 20260508145807 | 16 | 160 | 4.8 | 9.7 | 0.00 | 1.88 | 1.88 | 95 | 1012.4 |
| 20260508145307 | 16 | 189 | 8.0 | 12.9 | 0.00 | 1.88 | 1.88 | 95 | 1012.4 |
| 20260508143306 | 16 | 138 | 0.0 | 8.0 | 0.00 | 1.88 | 1.88 | 95 | 1012.5 |
| 20260508141307 | 16 | 136 | 4.8 | 8.0 | 0.00 | 1.88 | 1.88 | 96 | 1012.6 |
| 20260508133806 | 15 | 144 | 3.2 | 4.8 | 0.13 | 1.88 | 1.88 | 96 | 1012.6 |
| 20260508132807 | 15 | 144 | 3.2 | 8.0 | 0.13 | 1.88 | 1.88 | 95 | 1012.7 |
| 20260508132307 | 15 | 142 | 6.4 | 11.3 | 0.13 | 1.88 | 1.88 | 96 | 1012.5 |
| 20260508131807 | 15 | 147 | 4.8 | 9.7 | 0.13 | 1.88 | 1.88 | 96 | 1012.5 |
| 20260508130306 | 15 | 139 | 8.0 | 16.1 | 0.10 | 1.85 | 1.85 | 95 | 1012.5 |
| 20260508124806 | 15 | 119 | 0.0 | 4.8 | 0.03 | 1.78 | 1.78 | 95 | 1013.1 |
| 20260508124306 | 15 | 132 | 3.2 | 8.0 | 0.00 | 1.75 | 1.75 | 96 | 1013.1 |
| 20260508123806 | 15 | 183 | 0.0 | 3.2 | 0.00 | 1.75 | 1.75 | 95 | 1013.1 |
| 20260508123306 | 15 | 183 | 1.6 | 8.0 | 0.00 | 1.75 | 1.75 | 95 | 1013.1 |
| 20260508120805 | 15 | 144 | 1.6 | 4.8 | 0.20 | 1.75 | 1.75 | 95 | 1013.0 |
| 20260508120306 | 15 | 144 | 0.0 | 4.8 | 0.41 | 1.75 | 1.75 | 95 | 1012.8 |
| 20260508115806 | 15 | 144 | 3.2 | 9.7 | 0.48 | 1.75 | 1.75 | 95 | 1012.6 |
| 20260508114806 | 15 | 158 | 8.0 | 9.7 | 0.91 | 1.75 | 1.75 | 95 | 1012.7 |
| 20260508114305 | 15 | 142 | 3.2 | 8.0 | 1.07 | 1.75 | 1.75 | 95 | 1012.6 |
| 20260508113306 | 15 | 138 | 4.8 | 11.3 | 1.09 | 1.75 | 1.75 | 95 | 1012.6 |
| 20260508111306 | 15 | 156 | 12.9 | 19.3 | 1.22 | 1.70 | 1.70 | 94 | 1012.1 |
| 20260508110806 | 15 | 151 | 9.7 | 19.3 | 1.07 | 1.55 | 1.55 | 94 | 1012.3 |
| 20260508110305 | 15 | 144 | 8.0 | 14.5 | 0.86 | 1.35 | 1.35 | 94 | 1013.0 |
| 20260508105805 | 15 | 210 | 1.6 | 4.8 | 0.79 | 1.27 | 1.27 | 93 | 1013.0 |
| 20260508105306 | 15 | 217 | 1.6 | 3.2 | 0.66 | 1.14 | 1.14 | 93 | 1013.2 |
| 20260508104805 | 15 | 215 | 3.2 | 4.8 | 0.36 | 0.84 | 0.84 | 93 | 1012.6 |
| 20260508103806 | 15 | 202 | 0.0 | 4.8 | 0.18 | 0.66 | 0.66 | 93 | 1012.7 |
| 20260508103306 | 15 | 239 | 1.6 | 9.7 | 0.18 | 0.66 | 0.66 | 93 | 1013.3 |
| 20260508102805 | 15 | 273 | 3.2 | 8.0 | 0.18 | 0.66 | 0.66 | 93 | 1012.3 |
| 20260508101806 | 15 | 263 | 1.6 | 4.8 | 0.05 | 0.53 | 0.53 | 93 | 1012.5 |
| 20260508100806 | 15 | 158 | 3.2 | 4.8 | 0.00 | 0.48 | 0.48 | 93 | 1011.6 |
| 20260508095806 | 15 | 157 | 1.6 | 4.8 | 0.03 | 0.48 | 0.48 | 93 | 1011.5 |
| 20260508095307 | 15 | 157 | 4.8 | 8.0 | 0.03 | 0.48 | 0.48 | 92 | 1011.5 |
| 20260508094305 | 15 | 151 | 4.8 | 8.0 | 0.03 | 0.48 | 0.48 | 92 | 1011.7 |
| 20260508093805 | 15 | 157 | 3.2 | 8.0 | 0.03 | 0.48 | 0.48 | 92 | 1011.9 |
| 20260508093305 | 15 | 165 | 3.2 | 4.8 | 0.03 | 0.48 | 0.48 | 92 | 1011.7 |
| 20260508092805 | 15 | 166 | 1.6 | 9.7 | 0.03 | 0.48 | 0.48 | 92 | 1011.9 |
| 20260508091306 | 15 | 182 | 4.8 | 9.7 | 0.05 | 0.48 | 0.48 | 91 | 1011.8 |
| 20260508090805 | 15 | 147 | 9.7 | 14.5 | 0.05 | 0.48 | 0.48 | 91 | 1011.8 |
| 20260508090305 | 15 | 154 | 8.0 | 11.3 | 0.03 | 0.46 | 0.46 | 91 | 1011.9 |
| 20260508085307 | 15 | 199 | 3.2 | 4.8 | 0.20 | 0.46 | 0.46 | 91 | 1012.5 |
| 20260508084306 | 15 | 218 | 3.2 | 4.8 | 0.46 | 0.46 | 0.46 | 90 | 1012.5 |
| 20260508083305 | 15 | 263 | 1.6 | 11.3 | 0.46 | 0.46 | 0.46 | 90 | 1012.5 |
| 20260508082806 | 15 | 157 | 9.7 | 19.3 | 0.46 | 0.46 | 0.46 | 90 | 1012.7 |
| 20260508082306 | 15 | 144 | 9.7 | 19.3 | 0.46 | 0.46 | 0.46 | 89 | 1012.7 |
| 20260508081806 | 15 | 133 | 9.7 | 14.5 | 0.43 | 0.43 | 0.43 | 88 | 1012.7 |
| 20260508080805 | 15 | 150 | 9.7 | 14.5 | 0.43 | 0.43 | 0.43 | 87 | 1013.3 |
| 20260508074305 | 16 | 139 | 1.6 | 3.2 | 0.00 | 0.00 | 0.00 | 80 | 1013.9 |
| 20260508073305 | 16 | 140 | 3.2 | 8.0 | 0.00 | 0.00 | 0.00 | 79 | 1013.3 |
| 20260508072806 | 16 | 139 | 3.2 | 4.8 | 0.00 | 0.00 | 0.00 | 79 | 1013.3 |
| 20260508071306 | 16 | 142 | 3.2 | 11.3 | 0.00 | 0.00 | 0.00 | 80 | 1013.4 |
| 20260508070305 | 16 | 142 | 0.0 | 1.6 | 0.00 | 0.00 | 0.00 | 79 | 1013.3 |
| 20260508065307 | 16 | 142 | 1.6 | 3.2 | 0.00 | 0.00 | 0.00 | 79 | 1013.5 |
| 20260508063805 | 16 | 143 | 0.0 | 0.0 | 0.00 | 0.00 | 0.00 | 78 | 1013.9 |
| 20260508063305 | 16 | 143 | 0.0 | 1.6 | 0.00 | 0.00 | 0.00 | 78 | 1014.1 |
| 20260508062805 | 16 | 142 | 0.0 | 3.2 | 0.00 | 0.00 | 0.00 | 78 | 1014.1 |
| 20260508062306 | 16 | 142 | 1.6 | 4.8 | 0.00 | 0.00 | 0.00 | 77 | 1013.9 |
| 20260508060805 | 17 | 143 | 1.6 | 4.8 | 0.00 | 0.00 | 0.00 | 76 | 1013.8 |